Date String (YYYY-MM-DD hh:mm:ss) UTC,Instrument flags,Ambient pressure (hPa),Sample flow (lpm),Bypass flow (lpm),Sample temperature (°C),Ambient temperature (°C),ASC tube jacket temperature (°C),LED temperature (°C),Box temperature (°C),Sample RH (%),Span deviation,Mass concentration (μg/m³),Mass concentration (μg/m³),Mass concentration (μg/m³)
DateTimeUTC,F1_M11,P_M11,Q1_M11,Q2_M11,T1_M11,T2_M11,T3_M11,T4_M11,T5_M11,U1_M11,ZSPAN_M11,X2_M11,X0_M11,X1_M11
2022-03-30 21:00:00,,0816.5,5.00,0.00,23.6,22.6,00.0,32.5,25.4,05.4,0000.0,0002.14,0005.02,0001.16
2022-03-30 21:01:00,,0816.6,4.99,0.00,23.6,22.6,00.0,32.5,25.4,05.4,0000.0,0002.13,0005.02,0001.16
2022-03-30 21:02:00,,0816.6,5.01,0.00,23.6,22.5,00.0,32.5,25.3,05.5,0000.0,0002.16,0005.13,0001.16
2022-03-30 21:03:00,,0816.7,5.00,0.00,23.6,22.5,00.0,32.5,25.3,05.6,0000.0,0002.21,0005.23,0001.17
2022-03-30 21:04:00,,0816.6,4.99,0.00,23.6,22.5,00.0,32.5,25.3,05.6,0000.0,0002.19,0005.16,0001.19
2022-03-30 21:05:00,,0816.5,5.01,0.00,23.6,22.5,00.0,32.5,25.3,05.6,0000.0,0002.21,0005.05,0001.19
2022-03-30 21:06:00,,0816.5,5.00,0.00,23.5,22.5,00.0,32.5,25.3,05.7,0000.0,0002.08,0004.11,0001.20
2022-03-30 21:07:00,,0816.7,4.99,0.00,23.5,22.5,00.0,32.5,25.3,05.8,0000.0,0002.09,0004.12,0001.20
2022-03-30 21:08:00,,0816.7,5.01,0.00,23.5,22.5,00.0,32.5,25.2,05.8,0000.0,0002.12,0004.16,0001.20
2022-03-30 21:09:00,,0816.5,5.00,0.00,23.5,22.5,00.0,32.5,25.1,05.6,0000.0,0002.13,0004.11,0001.19
2022-03-30 21:10:00,,0816.6,4.99,0.00,23.4,22.5,00.0,32.5,25.1,05.8,0000.0,0002.11,0003.99,0001.19
2022-03-30 21:11:00,,0816.5,5.00,0.00,23.4,22.5,00.0,32.5,25.0,06.0,0000.0,0002.14,0004.12,0001.18
2022-03-30 21:12:00,,0816.6,4.99,0.00,23.4,22.4,00.0,32.4,25.0,06.1,0000.0,0002.13,0004.10,0001.17
2022-03-30 21:13:00,,0816.8,5.00,0.00,23.4,22.4,00.0,32.4,25.0,05.9,0000.0,0002.10,0004.27,0001.17
2022-03-30 21:14:00,,0816.6,5.00,0.00,23.4,22.4,00.0,32.4,25.0,05.9,0000.0,0002.03,0004.21,0001.16
2022-03-30 21:15:00,,0816.7,4.99,0.00,23.4,22.4,00.0,32.4,25.0,06.2,0000.0,0002.08,0004.38,0001.16
2022-03-30 21:16:00,,0816.6,5.00,0.00,23.4,22.5,00.0,32.4,25.1,05.9,0000.0,0002.12,0004.53,0001.16
2022-03-30 21:17:00,,0816.6,5.02,0.00,23.4,22.5,00.0,32.4,25.1,06.3,0000.0,0002.22,0004.82,0001.16
2022-03-30 21:18:00,,0816.5,4.99,0.00,23.4,22.4,00.0,32.4,25.0,06.4,0000.0,0002.26,0005.05,0001.16
2022-03-30 21:19:00,,0816.4,5.00,0.00,23.4,22.4,00.0,32.4,25.1,06.2,0000.0,0002.19,0005.00,0001.15
2022-03-30 21:20:00,,0816.5,5.00,0.00,23.4,22.5,00.0,32.4,25.1,06.1,0000.0,0002.15,0004.94,0001.16
2022-03-30 21:21:00,,0816.5,5.00,0.00,23.4,22.5,00.0,32.4,25.1,06.1,0000.0,0002.20,0005.11,0001.17
2022-03-30 21:22:00,,0816.4,4.99,0.00,23.4,22.5,00.0,32.4,25.1,05.9,0000.0,0002.20,0005.18,0001.19
2022-03-30 21:23:00,,0816.4,5.00,0.00,23.4,22.5,00.0,32.4,25.1,06.3,0000.0,0002.26,0005.28,0001.21
2022-03-30 21:24:00,,0816.5,5.01,0.00,23.4,22.4,00.0,32.4,25.2,06.3,0000.0,0002.28,0004.92,0001.22
2022-03-30 21:25:00,,0816.5,5.00,0.00,23.4,22.5,00.0,32.4,25.2,06.2,0000.0,0002.37,0004.91,0001.24
2022-03-30 21:26:00,,0816.7,5.00,0.00,23.4,22.4,00.0,32.4,25.2,06.1,0000.0,0002.34,0004.74,0001.23
2022-03-30 21:27:00,,0816.5,5.00,0.00,23.4,22.5,00.0,32.4,25.2,06.0,0000.0,0002.26,0004.52,0001.22
2022-03-30 21:28:00,,0816.5,5.00,0.00,23.4,22.5,00.0,32.4,25.2,06.2,0000.0,0002.23,0004.38,0001.22
2022-03-30 21:29:00,,0816.5,5.00,0.00,23.4,22.5,00.0,32.4,25.1,06.1,0000.0,0002.23,0004.23,0001.22
2022-03-30 21:30:00,,0816.5,5.00,0.00,23.4,22.4,00.0,32.4,25.1,06.2,0000.0,0002.27,0004.25,0001.22
2022-03-30 21:31:00,,0816.5,5.01,0.00,23.4,22.5,00.0,32.4,25.2,06.2,0000.0,0002.32,0004.49,0001.23
2022-03-30 21:32:00,,0816.4,5.00,0.00,23.4,22.5,00.0,32.4,25.2,06.3,0000.0,0002.29,0005.23,0001.22
2022-03-30 21:33:00,,0816.4,5.00,0.00,23.4,22.5,00.0,32.4,25.2,06.2,0000.0,0002.29,0005.22,0001.22
2022-03-30 21:34:00,,0816.4,4.99,0.00,23.4,22.5,00.0,32.4,25.1,06.2,0000.0,0002.19,0005.01,0001.19
2022-03-30 21:35:00,,0816.4,4.99,0.00,23.4,22.5,00.0,32.4,25.1,06.3,0000.0,0002.16,0005.13,0001.18
2022-03-30 21:36:00,,0816.4,5.01,0.00,23.4,22.5,00.0,32.4,25.1,06.3,0000.0,0002.12,0005.47,0001.17
2022-03-30 21:37:00,,0816.4,5.01,0.00,23.4,22.5,00.0,32.4,25.1,06.3,0000.0,0002.08,0005.86,0001.17
2022-03-30 21:38:00,,0816.5,5.01,0.00,23.4,22.5,00.0,32.4,25.1,06.1,0000.0,0002.05,0005.75,0001.19
2022-03-30 21:39:00,,0816.4,5.00,0.00,23.4,22.5,00.0,32.4,25.1,06.2,0000.0,0002.07,0005.91,0001.18
2022-03-30 21:40:00,,0816.4,4.99,0.00,23.4,22.4,00.0,32.3,25.1,06.7,0000.0,0002.16,0006.30,0001.19
2022-03-30 21:41:00,,0816.4,5.00,0.00,23.4,22.5,00.0,32.4,25.1,06.6,0000.0,0002.20,0006.48,0001.19
2022-03-30 21:42:00,,0816.4,4.99,0.00,23.4,22.5,00.0,32.4,25.1,06.2,0000.0,0002.22,0006.80,0001.17
2022-03-30 21:43:00,,0816.6,5.01,0.00,23.4,22.5,00.0,32.4,25.2,06.1,0000.0,0002.24,0006.52,0001.16
2022-03-30 21:44:00,,0816.5,5.00,0.00,23.4,22.5,00.0,32.4,25.1,06.1,0000.0,0002.25,0007.00,0001.16
2022-03-30 21:45:00,,0816.5,5.01,0.00,23.4,22.5,00.0,32.4,25.2,06.3,0000.0,0002.29,0008.13,0001.17
2022-03-30 21:46:00,,0816.5,5.01,0.00,23.5,22.5,00.0,32.4,25.1,06.1,0000.0,0002.28,0008.25,0001.17
2022-03-30 21:47:00,,0816.5,4.99,0.00,23.5,22.5,00.0,32.4,25.2,06.4,0000.0,0002.28,0008.46,0001.18
2022-03-30 21:48:00,,0816.4,5.00,0.00,23.5,22.5,00.0,32.4,25.2,06.2,0000.0,0002.30,0008.23,0001.19
2022-03-30 21:49:00,,0816.5,5.00,0.00,23.5,22.5,00.0,32.4,25.2,05.8,0000.0,0002.38,0008.39,0001.19
2022-03-30 21:50:00,,0816.4,4.99,0.00,23.5,22.5,00.0,32.4,25.2,05.9,0000.0,0002.38,0008.36,0001.21
2022-03-30 21:51:00,,0816.5,5.01,0.00,23.5,22.5,00.0,32.4,25.2,05.9,0000.0,0002.29,0008.13,0001.21
2022-03-30 21:52:00,,0816.4,5.00,0.00,23.5,22.5,00.0,32.4,25.2,06.0,0000.0,0002.24,0008.03,0001.21
2022-03-30 21:53:00,,0816.5,5.01,0.00,23.5,22.5,00.0,32.5,25.2,05.8,0000.0,0002.21,0007.81,0001.21
2022-03-30 21:54:00,,0816.4,5.00,0.00,23.5,22.6,00.0,32.5,25.2,05.8,0000.0,0002.25,0007.58,0001.23
2022-03-30 21:55:00,,0816.4,5.01,0.00,23.5,22.6,00.0,32.5,25.3,06.1,0000.0,0002.19,0007.04,0001.22
2022-03-30 21:56:00,,0816.4,5.01,0.00,23.5,22.6,00.0,32.5,25.3,05.8,0000.0,0002.18,0005.43,0001.21
2022-03-30 21:57:00,,0816.5,4.99,0.00,23.5,22.7,00.0,32.5,25.3,05.7,0000.0,0002.20,0005.19,0001.22
2022-03-30 21:58:00,,0816.5,5.00,0.00,23.5,22.7,00.0,32.5,25.3,06.0,0000.0,0002.18,0004.33,0001.21
2022-03-30 21:59:00,,0816.4,5.01,0.00,23.5,22.7,00.0,32.5,25.2,05.7,0000.0,0002.21,0004.41,0001.21
